{"data":{"norad_id":59948,"epoch":"2026-05-24T17:07:08.253408Z","epoch_age_seconds":99738,"freshness":"FRESH","line1":"1 59948U 24107D   26144.71328997  .00003502  00000+0  33732-4 0  9993","line2":"2 59948  53.1596 236.6918 0000948  77.0108 283.1016 15.69726303114149","mean_motion":15.69726303,"eccentricity":9.48e-5,"inclination_deg":53.1596,"raan_deg":236.6918,"arg_perigee_deg":77.0108,"mean_anomaly_deg":283.1016,"bstar":3.3732e-5,"rev_number":11414,"period_min":91.735737449766,"perigee_km":359.04135281714,"apogee_km":360.31884293889,"semimajor_km":6737.817097878,"source":"CELESTRAK","updated_at":"2026-05-25T13:38:19.127518Z"}}